Back to catalog

STARLINK-33918

AliveCommunicationsVLEO
NORAD 63796·PAYLOAD·🇺🇸 United States

Launched May 2, 2025 from Cape Canaveral Space Force Station

Loading…

Next Passes (next 24 hours)

TLE

FreshSource: CelesTrak SupGP

Epoch: Sep 15, 2026, 03:21 UTC

1 63796C 25091X   26258.14006944 -.00025766  00000+0 -93338-3 0  2583
2 63796  43.0012  62.7958 0001648 268.6044 103.6605 15.27586480    17

Track STARLINK-33918 in real time with AllMySat

Download on the App Store